Regional Weather Roundup
Issued by NWS Kansas City/Pleasant Hill, MO

Home | Current Version | Previous Version | Graphics & Text | Print | Product List | Glossary Off
Versions: 1 2 3 4 5 6 7 8 9 10 11 12 13 14 15 16 17 18 19 20 21 22 23 24 25 26 27 28

000
ASUS43 KEAX 101210
RWREAX

WEATHER ROUNDUP FOR EASTERN KANSAS AND NORTHWEST MISSOURI
NATIONAL WEATHER SERVICE KANSAS CITY/PLEASANT HILL MO
600 AM CST SAT DEC 10 2016

KSZ040-057-103>105-MOZ028-029-037-043-101300-
...KANSAS CITY METROPOLITAN AREA...

CITY           SKY/WX    TMP DP  RH WIND       PRES   REMARKS
K.C. INTL      CLOUDY    26  13  57 E7        30.45S WCI  18
6HR MIN TEMP:  25; 6HR MAX TEMP:  27;

K.C. DOWNTOWN  CLOUDY    28  14  55 E6        30.47F WCI  22
6HR MIN TEMP:  26; 6HR MAX TEMP:  29;

LEES SUMMIT    CLOUDY    26  15  63 E5        30.46S WCI  20
6HR MIN TEMP:  24; 6HR MAX TEMP:  26;

OLATHE - IXD   CLOUDY    26  17  68 E6        30.44F WCI  19
6HR MIN TEMP:  23; 6HR MAX TEMP:  26;

OLATHE - OJC   CLOUDY    24  15  68 E5        30.44F WCI  18
6HR MIN TEMP:  21; 6HR MAX TEMP:  25;

LAWRENCE       CLOUDY    25  19  78 E5        30.45F WCI  19

$$

MOZ001>008-011>017-020>025-030>033-038>040-044>046-053-054-101300-
...NORTHERN AND CENTRAL MISSOURI...

CITY           SKY/WX    TMP DP  RH WIND       PRES   REMARKS
ST. JOSEPH     CLOUDY    26  14  60 SE5       30.46F WCI  20
6HR MIN TEMP:  25; 6HR MAX TEMP:  26;

MOSBY            N/A     27  16  63 CALM      30.49R
WARRENSBURG    CLOUDY    27  18  69 CALM      30.48F
WHITEMAN AFB   CLOUDY    26  16  66 CALM      30.47S
6HR MIN TEMP:  26; 6HR MAX TEMP:  26;

CLINTON        CLOUDY    28  18  64 CALM      30.48F
SEDALIA        CLOUDY    27  14  58 SE6       30.49F WCI  20
6HR MIN TEMP:  26; 6HR MAX TEMP:  27;

WARSAW         NOT AVBL
CHILLICOTHE      N/A     25  12  58 SE5       30.51S WCI  19
6HR MIN TEMP:  25; 6HR MAX TEMP:  25;

KIRKSVILLE     CLOUDY    24  14  65 S6        30.51S WCI  17
6HR MIN TEMP:  23; 6HR MAX TEMP:  24;


$$

MOZ041-047>049-056>058-063>065-088>090-097-101300-
...EASTERN AND SOUTHERN MISSOURI...

CITY           SKY/WX    TMP DP  RH WIND       PRES   REMARKS
ST. LOUIS INTL CLOUDY    27  14  58 S5        30.57S WCI  22
6HR MIN TEMP:  26; 6HR MAX TEMP:  27;

SPIRIT OF STL  CLOUDY    25  17  72 CALM      30.57S
COLUMBIA       CLOUDY    25  13  60 E7        30.51S WCI  17
JEFFERSON CITY CLOUDY    26  13  57 E3        30.54S
ROLLA          CLOUDY    23  13  65 SE9       30.48F WCI  13
OSAGE BEACH    MOCLDY    26  15  63 SE3       30.51F
SPRINGFIELD    CLOUDY    29  16  58 SE12      30.45F WCI  19
BRANSON        CLOUDY    28  18  64 SE6       30.48F WCI  22
JOPLIN         CLOUDY    33  18  53 S5        30.45F WCI  29
WEST PLAINS    CLOUDY    17  12  80 CALM      30.53R

$$

IAZ060-094-KSZ022-034>040-054-083-096-NEZ052-066-093-101300-
...KANSAS...SOUTHEAST NEBRASKA AND IOWA...

CITY           SKY/WX    TMP DP  RH WIND       PRES   REMARKS
TOPEKA         CLOUDY    26  19  74 E6        30.44F WCI  19
6HR MIN TEMP:  20; 6HR MAX TEMP:  28;

MANHATTAN      CLOUDY    28  16  60 E7        30.40F WCI  21
EMPORIA        PTCLDY    23  18  81 SE6       30.39F WCI  16
CHANUTE        CLOUDY    30  19  63 SE7       30.42F WCI  23
WICHITA        CLOUDY    21  14  74 SE8       30.35F WCI  11
OMAHA          CLOUDY    23  14  68 E3        30.43F
LINCOLN        CLOUDY    24  16  71 E5        30.40F WCI  18
FALLS CITY     CLOUDY    26  17  68 E6        30.42F WCI  19
LAMONI         CLOUDY    23  13  65 SE5       30.46S WCI  17
DES MOINES     CLOUDY    23  13  65 SE6       30.48S WCI  16

$$





USA.gov is the U.S. government's official web portal to all federal, state and local government web resources and services.